Location: Ferchesar
(52.6477°N, 12.4298°E)
Time: 23:57:39
(UTC+01:00)

Transit 4A - Pass Details

Date: 14 December 2021
Orbit: 864 x 981 km, 66.8° (Epoch: 19 January)

Event Time Altitude Azimuth Distance (km) Brightness Sun altitude
Rises 20:57:13 0° 287° (WNW) 3,539 11.7 -44.0°
Reaches altitude 10° 21:00:19 10° 303° (WNW) 2,620 10.8 -44.4°
Enters shadow 21:02:05 16° 317° (NW) 2,212 10.3 -44.6°
